This is the latest recevied weather packets stored in our database for station/object KC4GS-13. If no packets are shown the sender has not sent any weather packets the latest 10 day(s).
| Time | Temp. | Humidity | Pressure | Rain* | Wind** | Luminosity | Snow |
|---|---|---|---|---|---|---|---|
| 1787589567 | 32.22° C | 45% | 1017.3 hPa | 0 mm | - | 72 W/m² | - |
| 1787589266 | 32.22° C | 43% | 1017.3 hPa | 0 mm | - | 142 W/m² | - |
| 1787588962 | 32.22° C | 45% | 1017 hPa | 0 mm | - | 474 W/m² | - |
| 1787588658 | 31.67° C | 47% | 1017.2 hPa | 0 mm | - | 84 W/m² | - |
| 1787588353 | 31.11° C | 47% | 1017.5 hPa | 0 mm | - | 66 W/m² | - |
| 1787588049 | 31.11° C | 48% | 1017.6 hPa | 0 mm | - | 74 W/m² | - |
| 1787587744 | 31.11° C | 48% | 1017.8 hPa | 0 mm | - | 81 W/m² | - |
| 1787587439 | 31.11° C | 48% | 1017.8 hPa | 0 mm | - | 293 W/m² | - |
| 1787587138 | 30.56° C | 49% | 1017.6 hPa | 0 mm | - | 200 W/m² | - |
| 1787586833 | 30.56° C | 50% | 1017.8 hPa | 0 mm | - | 291 W/m² | - |
| 1787586528 | 30.56° C | 49% | 1017.9 hPa | 0 mm | - | 829 W/m² | - |
| 1787586223 | 30.56° C | 51% | 1018 hPa | 0 mm | - | 783 W/m² | - |
| 1787585921 | 30.56° C | 51% | 1017.9 hPa | 0 mm | - | 358 W/m² | - |
| 1787585619 | 30.56° C | 52% | 1018.1 hPa | 0 mm | - | 718 W/m² | - |
| 1787585315 | 30° C | 53% | 1018.1 hPa | 0 mm | - | 422 W/m² | - |
| 1787585009 | 30° C | 55% | 1017.9 hPa | 0 mm | - | 685 W/m² | - |
| 1787584704 | 29.44° C | 55% | 1018 hPa | 0 mm | - | 396 W/m² | - |
| 1787584402 | 28.89° C | 57% | 1018.1 hPa | 0 mm | - | 248 W/m² | - |
| 1787584102 | 28.89° C | 59% | 1018.1 hPa | 0 mm | - | 745 W/m² | - |
| 1787583796 | 28.33° C | 59% | 1017.8 hPa | 0 mm | - | 747 W/m² | - |
| 1787583492 | 27.78° C | 60% | 1017.7 hPa | 0 mm | - | 691 W/m² | - |
| 1787583190 | 27.78° C | 62% | 1018 hPa | 0 mm | - | 72 W/m² | - |
| 1787582886 | 27.78° C | 62% | 1018.2 hPa | 0 mm | - | 193 W/m² | - |
| 1787582580 | 27.78° C | 62% | 1018.2 hPa | 0 mm | - | 295 W/m² | - |
| 1787582276 | 27.78° C | 62% | 1017.9 hPa | 0 mm | - | 116 W/m² | - |
* Rain latest hour (hover to see other rain measurements)
** Current wind speed in m/s (hover to see current wind gust speed)